[[{"header":{"parameterUnit":"m.s-1","parameterCategory":1,"la1":30.2991,"la2":30.254,"lo1":-89.0895,"lo2":-89.0444,"dy":0.0017,"dx":0.0017,"nx":28,"ny":28,"refTime":"2023-09-27T03:00:00:Z","depth":0,"parameterNumber":2,"parameterNumberName":"U-component_of_WINDS"},"data":[0,0,0,0,0,0,0,0,0,0,0,0,0,0,0,0,0,0,0,0,0,0,0,0,0,0,0,0,0,0,0,0,0,0,0,0,0,0,0,0,0,0,0,0,0,0,0,0,0,0,0,0,0,0,0,0,0,0,-4.4693,-4.4695,0,-4.4834,-4.4836,-4.4837,-4.4801,-4.4798,-4.4796,-4.4793,-4.4939,-4.4945,-4.4952,0,0,0,0,0,0,0,0,0,0,0,0,0,-4.4395,-4.4401,-4.4693,-4.4695,-4.4697,-4.4834,-4.4836,-4.4838,-4.4802,-4.4798,-4.4795,-4.4792,-4.4937,-4.4944,-4.4952,0,0,0,0,0,0,0,0,0,0,0,0,0,-4.4529,-4.4403,-4.4693,-4.4695,-4.4697,-4.4833,-4.4836,-4.4838,-4.4802,-4.4798,-4.4794,-4.479,-4.4934,-4.4944,-4.4953,-4.5097,0,0,-4.4983,-4.4987,0,0,0,0,0,0,0,0,-4.4522,-4.454,-4.4693,-4.4695,-4.4697,-4.4796,-4.4784,-4.4925,-4.4803,-4.4762,-4.4793,-4.4788,-4.4895,-4.4907,-4.4943,-4.5104,-4.511,-4.4984,-4.499,-4.4994,-4.4997,0,0,0,0,0,0,0,-4.4513,-4.4534,-4.4749,-4.4695,-4.4698,-4.469,-4.4704,-4.4811,-4.485,-4.4766,-4.4763,-4.478,-4.4895,-4.4934,-4.4946,-4.5112,-4.4984,-4.4992,-4.4998,-4.5002,-4.54,-4.5404,0,0,0,0,0,0,-4.4501,-4.4527,-4.4744,-4.4753,-4.4597,-4.4699,-4.4715,-4.4768,-4.4849,-4.4857,-4.4784,-4.4778,-4.4919,-4.4935,-4.4951,-4.5127,-4.4994,-4.5003,-4.5009,-4.5395,-4.5401,-4.5406,0,0,0,0,0,0,-4.4495,-4.4521,-4.4739,-4.4639,-4.4666,-4.4708,-4.4769,-4.4773,-4.4812,-4.4863,-4.487,-4.4816,-4.4917,-4.4938,-4.5061,-4.5131,-4.5007,-4.5016,-4.5389,-4.5397,-4.5403,-4.5477,0,0,0,0,0,0,-4.4487,-4.4519,-4.4573,-4.4641,-4.4672,-4.4846,-4.4773,-4.4779,-4.4829,-4.4823,-4.4895,-4.4903,-4.4915,-4.5047,-4.5071,-4.5142,-4.5024,-4.5383,-4.5393,-4.5401,-4.5469,-4.5486,-4.55,0,0,0,0,0,-4.4476,-4.4588,-4.4576,-4.4603,-4.474,-4.485,-4.4868,-4.4879,-4.4834,-4.489,-4.4923,-4.49,-4.5119,-4.506,-4.5087,-4.5162,-4.5379,-4.539,-4.54,-4.5461,-4.5482,-4.55,0,0,0,0,0,0,-4.4528,-4.4597,-4.4584,-4.4721,-4.478,-4.4843,-4.4914,-4.49,-4.4973,-4.4965,-4.4976,-4.4993,-4.512,-4.5153,-4.5086,-4.5306,-4.5243,-4.5259,-4.528,-4.53,-4.5316,-4.5306,-4.5032,0,0,0,0,0,-4.4555,-4.4638,-4.4694,-4.4809,-4.4839,-4.4872,-4.492,-4.4923,-4.4985,-4.5009,-4.5051,-4.5112,-4.5195,-4.5249,-4.5328,-4.5473,-4.5489,-4.5538,-4.5553,-4.5566,-4.5581,-4.5663,-4.5686,-4.5441,-4.5441,-4.5441,0,0,-4.4613,-4.4661,-4.4712,-4.4821,-4.4867,-4.4953,-4.4893,-4.4986,-4.5051,-4.5024,-4.5144,-4.5177,-4.5245,-4.5381,-4.5443,-4.5413,-4.5652,-4.558,-4.559,-4.5598,-4.5676,-4.5699,-4.572,-4.5448,-4.5447,-4.5446,0,0,-4.4762,-4.4806,-4.4908,-4.4955,-4.5025,-4.5046,-4.5071,-4.5137,-4.5158,-4.5278,-4.526,-4.5337,-4.5479,-4.5529,-4.5574,-4.5744,-4.5727,-4.5769,-4.5853,-4.5932,-4.5951,-4.5969,-4.6032,-4.6054,-4.5783,-4.5783,-4.5783,0,-4.4825,-4.4953,-4.4962,-4.5058,-4.5107,-4.5086,-4.5191,-4.5237,-4.5329,-4.5364,-4.5329,-4.5507,-4.5552,-4.57,-4.5742,-4.5778,-4.5808,-4.5761,-4.5948,-4.5965,-4.5981,-4.6042,-4.6065,-4.5788,-4.5787,-4.5787,-4.5786,0,-4.5028,-4.5118,-4.5192,-4.5282,-4.534,-4.5439,-4.5464,-4.5522,-4.5521,-4.5546,-4.567,-4.5723,-4.5813,-4.5848,-4.5847,-4.5997,-4.5976,-4.5944,-4.5881,-4.6009,-4.6066,-4.6089,-4.5795,-4.5793,-4.5792,-4.579,0,0,-4.5215,-4.5309,-4.5336,-4.5378,-4.5454,-4.5524,-4.5623,-4.5711,-4.5761,-4.5826,-4.5911,-4.6032,-4.6003,-4.6053,-4.6059,-4.6128,-4.6262,-4.6088,-4.6089,-4.612,-4.6433,-4.6458,-4.6485,-4.6251,-4.6255,-4.6259,-4.6428,0,-4.5372,-4.5547,-4.5558,-4.5717,-4.5801,-4.5783,-4.587,-4.5927,-4.5953,-4.6029,-4.6058,-4.6145,-4.6099,-4.613,-4.6197,-4.6231,-4.6326,-4.6219,-4.6332,-4.6336,-4.6317,-4.6514,-4.6541,-4.6698,-4.645,-4.6454,-4.6457,0,-4.558,-4.5651,-4.5818,-4.5885,-4.592,-4.5998,-4.6081,-4.6153,-4.6218,-4.6232,-4.6289,-4.6285,-4.6388,-4.6321,-4.6465,-4.6392,-4.6439,-4.6463,-4.6469,-4.6482,-4.6405,-4.6534,-4.6748,-4.6773,-4.6491,-4.6488,-4.6486,0,-4.5702,-4.584,-4.5958,-4.5994,-4.6073,-4.6129,-4.6165,-4.6225,-4.6278,-4.635,-4.6385,-4.6468,-4.6515,-4.658,-4.6599,-4.6547,-4.6744,-4.6677,-4.676,-4.676,-4.6804,-4.6801,-4.7031,-4.683,-4.683,-4.683,-4.6829,0,-4.5878,-4.5982,-4.6014,-4.6087,-4.6203,-4.6216,-4.633,-4.6363,-4.6417,-4.6497,-4.6486,-4.6562,-4.6581,-4.6661,-4.6677,-4.6795,-4.6815,-4.6831,-4.6835,-4.6834,-4.6832,-4.6866,-4.6856,-4.6836,-4.6834,-4.6833,-4.6832,0,-4.6035,-4.606,-4.6189,-4.6254,-4.6273,-4.6356,-4.6412,-4.6483,-4.6507,-4.6609,-4.6634,-4.6673,-4.6767,-4.6792,-4.6903,-4.6914,-4.7054,-4.7046,-4.7032,-4.7033,-4.7116,-4.7109,-4.7377,-4.7414,-4.7187,-4.7189,-4.7191,0,-4.6147,-4.6226,-4.63,-4.6352,-4.6391,-4.6476,-4.653,-4.6545,-4.6602,-4.6683,-4.6745,-4.6836,-4.6911,-4.7061,-4.7101,-4.7187,-4.7182,-4.727,-4.7195,-4.7192,-4.7186,-4.7182,-4.7191,-4.7285,-4.7287,-4.7289,-4.7291,0,-4.6343,-4.6352,-4.643,-4.6513,-4.6578,-4.6644,-4.6708,-4.6752,-4.6776,-4.6841,-4.6937,-4.6994,-4.7109,-4.7201,-4.7288,-4.7326,-4.7314,-4.7314,-4.7338,-4.7339,-4.7329,-4.7338,-4.7074,-4.7308,-4.7306,-4.7305,-4.7304,-4.7304,-4.6482,-4.6553,-4.6616,-4.6704,-4.6754,-4.6814,-4.6884,-4.6918,-4.6997,-4.7092,-4.7096,-4.72,-4.7265,-4.738,-4.7423,-4.7506,-4.748,-4.7514,-4.7524,-4.7533,-4.7541,-4.7314,-4.7522,-4.7521,-4.7521,-4.752,-4.752,0,-4.668,-4.672,-4.6801,-4.689,-4.696,-4.6941,-4.7011,-4.7071,-4.7162,-4.7223,-4.7297,-4.7408,-4.7497,-4.7544,-4.7634,-4.7691,-4.7688,-4.7714,-4.7711,-4.7721,-4.7558,-4.7529,-4.7716,-4.7716,-4.7716,-4.7715,-4.7715,-4.7715,-4.6791,-4.6911,-4.6927,-4.7072,-4.7111,-4.7213,-4.7255,-4.7311,-4.736,-4.7484,-4.7558,-4.7587,-4.7644,-4.7737,-4.7819,-4.7831,-4.7865,-4.7896,-4.7904,-4.7752,-4.7732,-4.7713,-4.7686,-4.7902,-4.7903,-4.8061,-4.8062,-4.8063]},{"header":{"parameterUnit":"m.s-1","parameterCategory":1,"la1":30.2991,"la2":30.254,"lo1":-89.0895,"lo2":-89.0444,"dy":0.0017,"dx":0.0017,"nx":28,"ny":28,"refTime":"2023-09-27T03:00:00:Z","depth":0,"parameterNumber":3,"parameterNumberName":"V-component_of_WINDS"},"data":[0,0,0,0,0,0,0,0,0,0,0,0,0,0,0,0,0,0,0,0,0,0,0,0,0,0,0,0,0,0,0,0,0,0,0,0,0,0,0,0,0,0,0,0,0,0,0,0,0,0,0,0,0,0,0,0,0,0,-0.2644,-0.2646,0,-0.2852,-0.2855,-0.2857,-0.2942,-0.2942,-0.2941,-0.2941,-0.316,-0.3166,-0.3172,0,0,0,0,0,0,0,0,0,0,0,0,0,-0.2324,-0.233,-0.2644,-0.2646,-0.2649,-0.2852,-0.2855,-0.2858,-0.2942,-0.2942,-0.2941,-0.2941,-0.3158,-0.3165,-0.3173,0,0,0,0,0,0,0,0,0,0,0,0,0,-0.2491,-0.2332,-0.2643,-0.2716,-0.2724,-0.2851,-0.2855,-0.2858,-0.2942,-0.2942,-0.2941,-0.294,-0.3155,-0.3164,-0.3174,-0.3246,0,0,-0.3202,-0.3206,0,0,0,0,0,0,0,0,-0.2481,-0.2503,-0.2702,-0.2711,-0.2721,-0.287,-0.2822,-0.2988,-0.2943,-0.286,-0.2941,-0.294,-0.3064,-0.3081,-0.3122,-0.3256,-0.3266,-0.3203,-0.3209,-0.3213,-0.3216,0,0,0,0,0,0,0,-0.247,-0.2494,-0.2727,-0.2705,-0.2716,-0.2739,-0.2762,-0.2854,-0.2964,-0.2867,-0.2874,-0.2897,-0.3069,-0.3113,-0.3128,-0.3269,-0.3203,-0.3211,-0.3217,-0.3221,-0.3474,-0.3475,0,0,0,0,0,0,-0.2446,-0.2484,-0.272,-0.2733,-0.2597,-0.2745,-0.2771,-0.2823,-0.2963,-0.2983,-0.2897,-0.29,-0.3097,-0.3117,-0.3136,-0.3231,-0.3213,-0.3222,-0.3227,-0.3473,-0.3474,-0.3475,0,0,0,0,0,0,-0.2438,-0.2466,-0.2711,-0.261,-0.2643,-0.2752,-0.281,-0.2828,-0.2871,-0.2986,-0.3006,-0.2921,-0.3097,-0.3123,-0.3218,-0.324,-0.3226,-0.3234,-0.3471,-0.3473,-0.3475,-0.3421,0,0,0,0,0,0,-0.2429,-0.2463,-0.249,-0.261,-0.2648,-0.2788,-0.2811,-0.2832,-0.2887,-0.2892,-0.3014,-0.3033,-0.3099,-0.3203,-0.3227,-0.3253,-0.3242,-0.347,-0.3472,-0.3474,-0.3421,-0.342,-0.342,0,0,0,0,0,-0.2417,-0.2468,-0.2491,-0.2519,-0.2685,-0.2789,-0.2811,-0.2884,-0.2888,-0.2917,-0.2991,-0.3029,-0.3232,-0.3212,-0.324,-0.3268,-0.3469,-0.3472,-0.3474,-0.3422,-0.3421,-0.342,0,0,0,0,0,0,-0.235,-0.2485,-0.2513,-0.2603,-0.2684,-0.2803,-0.2843,-0.2881,-0.2964,-0.2966,-0.3054,-0.3081,-0.3169,-0.3228,-0.3203,-0.3346,-0.3354,-0.3362,-0.3305,-0.3305,-0.3304,-0.3289,-0.325,0,0,0,0,0,-0.2345,-0.2417,-0.2532,-0.2601,-0.264,-0.2734,-0.2782,-0.2831,-0.2919,-0.2954,-0.3035,-0.312,-0.3204,-0.3257,-0.334,-0.3429,-0.3458,-0.3462,-0.3461,-0.346,-0.3467,-0.352,-0.3524,-0.3483,-0.3483,-0.3483,0,0,-0.2338,-0.242,-0.2461,-0.259,-0.2658,-0.2733,-0.2763,-0.284,-0.2897,-0.2967,-0.3062,-0.3123,-0.3225,-0.3317,-0.3362,-0.3369,-0.3484,-0.3463,-0.3461,-0.347,-0.3523,-0.3527,-0.353,-0.3485,-0.3485,-0.3484,0,0,-0.2362,-0.243,-0.2496,-0.2563,-0.2665,-0.2727,-0.2743,-0.2857,-0.29,-0.2995,-0.305,-0.3119,-0.326,-0.3331,-0.3385,-0.3433,-0.3473,-0.3457,-0.3455,-0.3506,-0.3509,-0.3512,-0.3532,-0.3537,-0.3463,-0.3463,-0.3463,0,-0.234,-0.2453,-0.2525,-0.26,-0.2656,-0.272,-0.2788,-0.285,-0.2975,-0.3013,-0.3018,-0.3196,-0.3269,-0.3379,-0.3391,-0.3432,-0.3454,-0.3446,-0.3502,-0.3506,-0.3511,-0.353,-0.3537,-0.3461,-0.3461,-0.3461,-0.3462,0,-0.2422,-0.2499,-0.254,-0.2656,-0.2716,-0.2787,-0.2872,-0.2924,-0.2967,-0.3029,-0.3126,-0.3215,-0.3317,-0.3346,-0.339,-0.3463,-0.3465,-0.3484,-0.3495,-0.3511,-0.3531,-0.3539,-0.3458,-0.3459,-0.3459,-0.346,0,0,-0.2413,-0.2567,-0.2581,-0.2635,-0.2751,-0.2814,-0.2887,-0.2985,-0.3029,-0.3112,-0.3178,-0.3295,-0.3314,-0.3375,-0.3427,-0.347,-0.3505,-0.3486,-0.349,-0.3488,-0.3595,-0.3581,-0.3588,-0.353,-0.3532,-0.3534,-0.3587,0,-0.2454,-0.2588,-0.2655,-0.276,-0.2834,-0.2894,-0.2959,-0.3038,-0.3097,-0.3169,-0.3235,-0.3317,-0.3335,-0.3373,-0.3418,-0.3491,-0.3528,-0.3488,-0.3595,-0.3598,-0.3571,-0.3598,-0.3585,-0.3631,-0.3595,-0.3596,-0.3597,0,-0.2522,-0.2603,-0.2715,-0.2822,-0.2856,-0.2912,-0.3008,-0.3075,-0.3166,-0.3206,-0.3273,-0.3323,-0.3405,-0.3406,-0.3521,-0.3492,-0.3539,-0.3582,-0.3585,-0.3601,-0.3601,-0.3617,-0.3647,-0.3655,-0.361,-0.3609,-0.3608,0,-0.2507,-0.2643,-0.2728,-0.2772,-0.29,-0.2938,-0.2993,-0.3084,-0.3138,-0.3222,-0.3259,-0.335,-0.3402,-0.3473,-0.3547,-0.354,-0.3655,-0.3662,-0.3693,-0.3692,-0.3718,-0.3716,-0.3758,-0.3743,-0.3742,-0.3742,-0.3742,0,-0.2548,-0.2615,-0.2723,-0.2776,-0.2853,-0.2929,-0.3004,-0.3064,-0.3143,-0.321,-0.3268,-0.3329,-0.3422,-0.3495,-0.3553,-0.3641,-0.3663,-0.37,-0.3715,-0.3696,-0.3692,-0.3731,-0.3731,-0.3744,-0.3744,-0.3743,-0.3743,0,-0.2546,-0.2621,-0.2718,-0.2829,-0.2859,-0.2911,-0.3008,-0.3062,-0.3122,-0.3206,-0.323,-0.3326,-0.3416,-0.3495,-0.3615,-0.3654,-0.3744,-0.3761,-0.3713,-0.3722,-0.3749,-0.3747,-0.3821,-0.3836,-0.3807,-0.3807,-0.3807,0,-0.2569,-0.2622,-0.2738,-0.2786,-0.284,-0.2916,-0.2971,-0.3048,-0.3104,-0.3211,-0.3253,-0.3345,-0.3425,-0.3565,-0.3647,-0.3739,-0.3761,-0.378,-0.3775,-0.3755,-0.3765,-0.3762,-0.3768,-0.3781,-0.3781,-0.3781,-0.3781,0,-0.2604,-0.2637,-0.2714,-0.2804,-0.2868,-0.2942,-0.3019,-0.3055,-0.3146,-0.3206,-0.3297,-0.3358,-0.3479,-0.3572,-0.3672,-0.3731,-0.3772,-0.3781,-0.3793,-0.3777,-0.3748,-0.3767,-0.3715,-0.378,-0.378,-0.378,-0.378,-0.378,-0.2617,-0.2667,-0.2757,-0.284,-0.2905,-0.2975,-0.3032,-0.3098,-0.3175,-0.3278,-0.3318,-0.3412,-0.3502,-0.3641,-0.3699,-0.3774,-0.3782,-0.38,-0.3805,-0.3809,-0.3807,-0.3732,-0.3793,-0.3793,-0.3793,-0.3793,-0.3793,0,-0.2657,-0.2716,-0.2792,-0.2897,-0.2963,-0.2992,-0.3078,-0.3132,-0.3213,-0.3292,-0.3368,-0.3473,-0.3563,-0.365,-0.3745,-0.3789,-0.3811,-0.3812,-0.3811,-0.3825,-0.3793,-0.3774,-0.3793,-0.3793,-0.3793,-0.3793,-0.3793,-0.3793,-0.2685,-0.2772,-0.2816,-0.2935,-0.2995,-0.3086,-0.3133,-0.3198,-0.3262,-0.3376,-0.345,-0.3506,-0.3589,-0.369,-0.3775,-0.3798,-0.3832,-0.3829,-0.3858,-0.3827,-0.3827,-0.3826,-0.3809,-0.3834,-0.3834,-0.3884,-0.3884,-0.3884]}]]